Wind_Speed
13 12 11 10 10 11 11 12 12 13 13 12 12 11 12 13 13 15 19 11 8 8 8 10 14 15 17 6 11 7 2 3 8 5 4 19 5 17 5 17 7 12 9 20 33
15 14 13 12 12 11 11 11 12 13 14 14 13 12 12 14 15 18 13 13 12 10 11 13 17 19 8 2 4 6 4 8 6 9 6 17 9 14 7 15 3 14 12 32 35
15 15 15 14 13 12 11 11 12 12 13 14 13 12 12 12 15 12 9 12 11 10 11 12 14 13 7 8 3 3 5 4 6 16 15 14 11 6 16 2 17 31 29 31 36
16 16 15 16 15 14 11 10 11 12 11 12 12 12 12 10 4 2 5 8 12 14 12 11 7 11 5 5 6 5 10 7 3 10 14 10 12 11 16 9 25 29 37 36 39
18 18 17 17 16 15 12 10 10 11 10 10 11 11 11 10 20 5 3 5 4 7 11 11 8 4 2 9 14 3 6 12 9 6 11 14 12 7 17 7 23 31 33 37 38
19 19 19 19 18 15 12 10 10 9 9 9 10 11 11 10 15 14 11 7 7 7 10 11 5 11 12 6 2 13 16 10 9 11 8 7 5 9 8 21 26 33 31 27 29
20 20 20 20 19 16 11 10 8 8 7 8 10 11 15 23 9 11 17 12 9 7 12 7 12 11 12 9 9 12 6 1 3 5 7 13 2 1 19 28 29 28 27 22 21
21 21 22 22 20 15 11 8 7 7 7 7 9 11 13 13 19 24 14 13 11 11 13 8 13 18 8 9 9 6 4 5 5 1 1 10 2 2 26 30 23 24 27 23 23
22 22 22 23 21 14 9 6 6 6 6 7 8 8 11 8 12 19 18 16 9 10 10 12 12 7 4 2 5 6 2 3 8 3 2 5 4 4 24 22 23 24 28 13 26
23 23 23 23 21 12 7 4 4 5 6 6 10 5 8 5 7 20 20 16 8 8 6 3 2 1 4 5 3 4 6 5 7 4 8 9 4 4 26 24 27 31 31 18 27
24 24 23 23 21 11 5 2 2 4 10 10 4 10 4 6 4 14 20 14 9 4 1 4 4 7 5 6 5 4 4 5 8 3 6 4 3 4 8 17 19 26 25 24 28
24 24 23 23 21 10 6 5 4 1 8 15 21 27 26 25 9 10 17 8 4 4 2 5 6 5 3 2 4 3 5 8 4 3 4 3 3 6 6 1 21 25 21 17 21
24 25 23 22 19 9 5 4 7 11 5 11 18 18 17 9 10 13 13 11 3 3 4 7 5 4 2 6 6 8 5 4 6 3 6 5 4 4 4 4 6 5 13 13 19
25 25 24 22 12 7 5 6 10 5 3 6 5 8 12 7 4 16 19 17 3 9 6 5 8 5 4 7 5 7 12 9 8 4 4 4 3 3 3 3 2 2 4 7 16
25 25 24 22 19 10 1 9 2 2 3 3 4 3 13 12 2 7 20 18 8 5 6 7 1 3 4 11 6 12 5 3 5 5 5 5 4 7 1 4 4 5 2 7 10
25 25 24 22 15 4 6 4 8 5 5 4 6 6 5 5 2 5 11 17 6 3 2 6 5 4 7 9 8 6 2 8 5 4 3 5 4 5 5 6 3 6 2 16 12
26 23 24 20 9 6 2 6 5 3 5 2 4 4 3 4 2 2 5 5 5 4 3 7 7 6 7 5 2 6 6 3 4 5 4 2 0 7 6 6 5 5 5 21 15
26 23 21 15 9 11 3 5 2 3 6 6 2 4 5 5 4 4 4 6 3 5 3 3 6 4 4 7 9 2 7 6 5 4 4 2 4 6 3 4 12 14 12 21 16
26 23 14 4 15 12 7 3 6 5 5 8 4 5 3 4 5 3 8 8 9 8 7 4 6 4 4 4 7 4 2 5 8 3 3 3 7 9 7 6 9 6 22 24 19
28 21 7 7 16 14 4 5 4 4 6 3 1 2 5 4 6 7 6 6 6 10 9 2 3 2 7 5 2 7 7 4 3 5 3 5 6 6 4 6 5 9 20 24 22
20 8 5 8 17 6 4 6 5 8 9 5 6 4 8 5 8 6 9 4 12 8 10 6 4 7 5 1 6 2 2 7 6 4 5 1 6 8 11 7 7 6 12 24 24
8 3 5 20 5 2 3 5 6 7 10 8 5 9 6 7 6 9 12 11 22 14 11 7 5 4 11 5 6 5 4 5 5 4 1 4 7 2 10 9 15 15 9 21 23
18 4 9 11 3 2 5 5 9 10 6 3 5 6 7 7 4 9 11 28 13 12 10 8 2 2 10 7 4 4 1 6 6 4 5 6 6 6 1 7 17 17 12 7 23
6 3 3 12 0 4 3 6 5 8 4 4 7 8 3 2 1 5 7 4 22 19 14 14 4 7 7 7 5 4 1 3 6 4 4 6 7 5 7 7 10 17 13 11 28
3 2 2 2 1 1 3 4 9 7 2 3 6 6 5 3 4 4 5 3 5 9 11 7 7 4 4 1 6 5 5 4 4 5 6 4 8 7 12 11 13 15 12 23 22
3 4 6 4 6 3 2 2 3 9 2 3 5 14 3 3 3 2 3 4 3 7 4 1 2 3 6 6 7 5 3 6 4 4 5 7 6 5 3 12 14 18 21 23 25
3 4 4 4 3 3 3 1 6 10 9 16 14 3 4 5 11 21 25 19 9 4 3 3 5 3 3 3 2 3 4 3 1 3 3 0 6 4 3 9 17 18 26 29 25
Wind_Direction
0 355 346 335 323 309 293 282 275 274 276 278 283 289 293 295 292 283 269 256 270 276 318 334 330 330 322 238 205 205 32 274 182 177 152 170 156 180 208 150 143 181 207 173 167
357 353 348 339 327 315 300 287 276 267 266 269 276 286 293 301 301 273 254 258 255 276 309 320 329 333 323 233 217 161 136 224 192 167 175 174 158 173 144 160 117 185 157 161 170
356 352 346 340 330 319 303 290 280 270 261 259 264 275 289 305 313 273 254 250 243 276 295 313 323 337 325 325 353 278 207 216 168 182 173 155 165 177 126 198 172 157 162 173 179
355 352 346 342 332 321 305 289 278 272 263 257 257 262 275 291 268 202 202 225 248 270 282 303 314 332 327 325 306 314 245 202 204 174 173 152 167 165 167 209 178 168 174 177 183
354 351 347 342 334 324 308 290 278 270 262 254 252 255 264 264 251 228 201 194 252 285 278 293 320 320 327 296 331 191 288 224 211 200 167 160 198 191 199 183 170 164 173 179 191
353 350 347 344 338 326 309 292 277 265 256 252 249 247 248 250 251 246 247 253 272 285 279 291 280 309 301 293 55 279 297 262 219 229 220 157 209 158 213 174 170 170 175 182 194
351 348 346 344 339 329 312 295 273 258 251 248 248 247 246 243 256 243 243 251 253 261 284 278 294 297 318 315 341 279 317 177 213 233 235 145 61 223 175 172 166 169 176 187 190
349 348 345 343 339 330 313 296 272 254 246 243 248 256 256 262 252 249 230 236 250 271 275 280 291 295 269 290 302 335 38 19 296 214 204 157 111 258 172 166 168 169 177 193 192
347 346 345 342 339 330 314 290 266 252 244 241 247 246 263 254 242 220 224 234 249 264 276 287 285 272 282 26 350 6 347 333 321 68 94 75 136 303 179 170 165 173 186 210 187
344 343 344 343 340 329 312 277 262 260 247 246 245 279 262 294 247 204 206 228 251 307 316 274 163 99 46 67 274 318 339 323 292 324 57 94 126 287 205 177 168 180 193 195 192
341 340 341 341 338 325 301 224 220 249 232 226 226 233 208 323 329 213 207 220 241 292 175 7 52 237 186 193 208 289 274 265 279 255 79 40 90 38 102 144 159 186 193 197 205
338 336 337 338 333 312 276 219 249 128 296 272 258 261 259 269 301 224 203 203 160 216 95 13 241 245 262 236 261 257 282 302 307 8 84 114 51 24 39 299 179 191 196 198 207
335 333 333 336 328 304 291 18 298 268 316 282 245 249 257 237 226 238 202 199 170 192 182 192 205 48 256 302 299 284 198 170 209 119 51 104 12 53 4 352 223 232 256 242 205
332 331 329 335 329 332 147 27 21 184 38 274 235 244 208 196 260 235 216 199 221 201 181 237 275 223 237 260 158 289 291 235 143 98 176 69 243 327 314 301 278 258 157 179 206
330 328 324 326 312 286 272 336 54 94 340 187 194 175 164 166 251 191 184 185 181 185 124 236 119 68 267 250 158 238 226 241 119 109 92 351 77 267 312 277 303 326 73 146 154
326 325 318 319 307 260 268 335 134 44 255 328 147 166 137 192 258 168 164 200 229 179 284 227 290 228 228 265 212 258 195 47 62 90 59 265 134 270 214 203 221 253 109 149 148
323 321 312 306 290 195 198 149 44 161 328 209 182 149 147 155 214 151 153 144 162 113 319 338 272 262 218 253 21 75 60 8 1 13 215 339 87 243 208 215 220 258 170 146 156
324 317 305 292 233 189 158 56 177 254 263 299 137 93 159 158 236 190 109 206 247 102 99 148 325 173 185 183 202 122 139 147 196 188 239 277 247 252 159 265 281 268 196 153 161
326 322 308 234 193 189 176 97 217 220 309 349 4 92 317 242 177 154 190 201 203 161 172 155 268 296 234 203 139 187 178 181 105 43 72 287 293 285 238 200 181 147 172 165 163
329 328 345 181 180 171 90 228 242 239 339 354 355 163 201 247 163 168 183 208 210 181 168 203 283 256 302 26 43 160 159 69 12 139 232 300 285 239 279 207 190 130 188 177 167
330 334 3 141 159 149 155 237 275 280 336 352 308 270 241 204 196 196 213 268 195 184 146 142 116 282 19 306 181 94 89 57 110 117 156 223 266 221 223 199 183 158 209 191 174
344 350 107 147 82 111 191 206 248 269 285 255 235 205 240 203 211 204 214 214 200 151 163 201 148 217 239 280 321 105 130 131 121 211 88 124 275 276 226 173 195 195 186 201 186
335 303 170 186 130 253 278 273 276 276 246 224 263 246 218 221 191 200 202 231 184 157 173 174 224 333 332 356 4 60 30 100 108 74 186 133 261 346 48 156 213 208 185 184 188
333 354 117 218 281 108 358 290 301 237 261 249 262 273 252 288 311 264 227 264 190 204 193 147 128 162 190 205 134 148 208 128 115 107 165 230 270 291 268 233 213 224 225 215 185
310 317 12 349 295 319 210 288 307 328 278 336 312 251 242 194 245 356 6 26 78 170 140 132 174 160 8 24 109 157 152 140 118 153 153 273 224 248 222 220 198 200 188 177 156
329 353 346 287 297 314 42 50 311 304 304 301 252 314 245 94 350 8 162 39 105 330 90 64 133 101 39 12 113 111 150 145 176 159 181 243 247 221 171 172 177 170 152 146 144
310 292 305 290 326 99 163 254 253 314 284 244 267 257 93 136 115 88 88 91 79 103 58 73 121 86 158 340 9 20 212 194 168 239 191 214 244 145 120 145 181 160 159 162 159
Height
1533 1531 1529 1528 1526 1525 1524 1523 1523 1522 1522 1522 1522 1521 1520 1518 1517 1515 1511 1514 1514 1515 1516 1515 1515 1515 1513 1511 1511 1512 1521 1525 1517 1514 1508 1508 1509 1511 1512 1514 1516 1514 1513 1516 1521
1532 1530 1528 1526 1525 1523 1522 1521 1520 1520 1520 1520 1520 1519 1518 1517 1515 1511 1511 1512 1513 1513 1514 1513 1512 1511 1510 1511 1509 1509 1523 1511 1499 1498 1501 1504 1505 1508 1510 1513 1516 1515 1515 1518 1521
1533 1530 1528 1525 1523 1521 1520 1519 1518 1518 1518 1518 1518 1517 1517 1516 1515 1509 1509 1510 1511 1512 1513 1512 1512 1511 1509 1507 1507 1505 1508 1495 1496 1494 1495 1500 1501 1504 1506 1512 1510 1511 1514 1519 1523
1532 1529 1527 1524 1522 1519 1517 1516 1515 1515 1515 1515 1516 1515 1515 1515 1518 1506 1507 1508 1510 1511 1511 1512 1512 1512 1512 1510 1506 1508 1494 1493 1492 1493 1495 1499 1500 1501 1503 1503 1506 1509 1513 1518 1521
1531 1528 1525 1523 1520 1517 1515 1514 1513 1513 1513 1513 1514 1514 1514 1513 1506 1506 1505 1507 1508 1509 1509 1512 1512 1512 1513 1509 1504 1501 1498 1492 1492 1493 1494 1498 1499 1499 1502 1504 1508 1514 1517 1519 1522
1530 1527 1523 1520 1517 1515 1513 1512 1510 1510 1511 1511 1511 1512 1512 1511 1504 1505 1505 1506 1507 1507 1508 1511 1511 1512 1510 1507 1508 1500 1497 1491 1491 1492 1494 1497 1498 1501 1504 1505 1510 1515 1522 1525 1529
1529 1525 1522 1519 1515 1512 1510 1510 1509 1509 1509 1510 1510 1509 1509 1502 1502 1501 1502 1504 1506 1506 1506 1509 1511 1512 1511 1507 1502 1499 1497 1493 1491 1491 1492 1495 1504 1504 1502 1506 1511 1519 1525 1526 1525
1528 1524 1520 1517 1513 1510 1508 1507 1507 1508 1508 1508 1508 1508 1502 1499 1499 1500 1501 1502 1505 1505 1505 1507 1509 1511 1510 1506 1502 1500 1498 1511 1490 1489 1490 1493 1517 1504 1502 1505 1513 1518 1519 1516 1520
1526 1523 1519 1515 1511 1508 1506 1506 1506 1506 1507 1507 1507 1507 1499 1495 1495 1498 1499 1500 1502 1503 1504 1504 1507 1508 1507 1510 1517 1511 1520 1511 1502 1489 1492 1495 1513 1504 1504 1507 1511 1516 1517 1518 1520
1525 1521 1517 1513 1510 1507 1505 1505 1505 1506 1506 1506 1506 1508 1495 1494 1493 1494 1498 1499 1502 1502 1502 1503 1504 1508 1512 1520 1540 1525 1524 1514 1518 1496 1497 1504 1510 1504 1499 1503 1507 1510 1514 1515 1518
1523 1520 1516 1512 1508 1506 1505 1505 1508 1507 1503 1498 1497 1494 1492 1492 1492 1493 1496 1498 1500 1502 1506 1503 1511 1519 1512 1511 1512 1514 1517 1521 1508 1499 1501 1510 1511 1507 1504 1507 1509 1511 1514 1514 1514
1522 1518 1514 1510 1506 1504 1503 1504 1504 1505 1499 1493 1492 1490 1490 1492 1495 1491 1494 1498 1499 1504 1504 1510 1517 1501 1504 1505 1509 1512 1518 1519 1504 1500 1501 1513 1514 1511 1512 1514 1508 1509 1513 1517 1514
1520 1516 1512 1508 1503 1502 1502 1504 1504 1503 1501 1488 1485 1485 1487 1489 1491 1488 1492 1495 1498 1503 1505 1513 1505 1502 1504 1505 1510 1508 1517 1513 1510 1503 1504 1509 1521 1518 1515 1514 1515 1510 1509 1512 1512
1517 1513 1509 1506 1505 1502 1502 1502 1501 1501 1512 1491 1483 1480 1484 1487 1488 1486 1490 1496 1498 1502 1504 1506 1497 1500 1504 1508 1508 1522 1493 1500 1503 1513 1534 1513 1550 1523 1521 1515 1513 1509 1509 1510 1510
1515 1510 1507 1504 1503 1502 1503 1501 1501 1502 1532 1480 1479 1478 1478 1484 1483 1482 1485 1492 1495 1496 1500 1505 1497 1500 1505 1500 1501 1506 1494 1494 1499 1517 1523 1524 1540 1531 1520 1514 1511 1507 1506 1507 1508
1512 1508 1503 1502 1499 1501 1501 1501 1502 1518 1524 1481 1475 1477 1481 1481 1481 1481 1485 1490 1490 1494 1495 1499 1495 1495 1494 1489 1492 1487 1497 1503 1516 1526 1549 1532 1536 1538 1523 1511 1508 1506 1502 1503 1506
1507 1504 1499 1498 1498 1498 1500 1501 1519 1528 1486 1482 1479 1477 1479 1484 1483 1482 1486 1492 1500 1511 1512 1502 1496 1487 1486 1494 1487 1494 1512 1546 1543 1557 1554 1531 1533 1519 1505 1503 1505 1505 1504 1501 1506
1501 1498 1494 1494 1494 1497 1499 1503 1523 1498 1492 1476 1475 1478 1485 1483 1483 1484 1489 1497 1492 1498 1515 1519 1518 1490 1482 1487 1494 1496 1506 1542 1551 1563 1551 1530 1537 1514 1498 1499 1500 1500 1502 1500 1505
1496 1492 1489 1489 1491 1495 1499 1520 1512 1499 1487 1484 1475 1484 1487 1481 1483 1485 1492 1494 1489 1492 1512 1520 1513 1483 1480 1479 1482 1497 1508 1501 1536 1542 1551 1545 1525 1503 1492 1494 1497 1496 1498 1499 1504
1492 1487 1486 1487 1490 1495 1500 1511 1501 1490 1486 1484 1489 1482 1494 1486 1488 1488 1492 1477 1482 1483 1484 1496 1512 1485 1478 1475 1479 1484 1489 1518 1529 1553 1554 1549 1542 1526 1496 1495 1494 1492 1495 1498 1502
1492 1487 1487 1487 1492 1496 1509 1506 1494 1487 1488 1487 1487 1491 1485 1482 1483 1489 1483 1472 1470 1478 1482 1493 1503 1499 1485 1489 1490 1490 1500 1514 1523 1536 1559 1561 1538 1490 1488 1489 1491 1489 1492 1498 1501
1492 1490 1489 1491 1496 1499 1501 1494 1486 1484 1484 1483 1479 1479 1479 1478 1479 1482 1479 1468 1459 1470 1486 1484 1503 1514 1502 1483 1479 1478 1489 1502 1527 1535 1541 1543 1531 1481 1480 1482 1487 1488 1493 1497 1502
1494 1491 1491 1492 1501 1502 1494 1489 1485 1483 1479 1478 1476 1472 1465 1470 1474 1468 1464 1447 1458 1465 1474 1480 1503 1523 1513 1498 1484 1489 1489 1499 1508 1521 1533 1541 1523 1481 1479 1482 1484 1487 1494 1498 1502
1498 1495 1492 1494 1495 1496 1497 1490 1486 1478 1474 1473 1470 1464 1462 1461 1460 1461 1458 1448 1453 1459 1460 1467 1497 1502 1519 1501 1491 1495 1492 1491 1499 1522 1528 1525 1505 1488 1485 1483 1485 1488 1492 1495 1498
1499 1498 1497 1499 1496 1497 1498 1494 1487 1479 1471 1471 1471 1465 1461 1467 1462 1457 1453 1449 1451 1455 1461 1468 1490 1490 1490 1482 1482 1489 1490 1490 1495 1498 1513 1503 1504 1483 1480 1477 1480 1485 1489 1494 1505
1500 1500 1497 1496 1494 1493 1491 1491 1490 1481 1474 1477 1477 1466 1459 1463 1460 1458 1456 1463 1466 1459 1459 1467 1491 1485 1498 1490 1486 1496 1491 1487 1489 1490 1493 1498 1490 1476 1475 1478 1483 1484 1490 1496 1502
1500 1500 1500 1494 1493 1495 1497 1495 1491 1481 1470 1471 1471 1468 1462 1461 1458 1457 1459 1460 1461 1463 1466 1472 1483 1496 1504 1501 1493 1504 1491 1486 1485 1483 1483 1491 1478 1471 1476 1476 1481 1486 1489 1492 1499